Location: Miss�
(46.9484°N, 0.1922°W)
Time: 06:04:27
(UTC+00:00)

NOSS 3-3 (C) - Pass Details

Date: 02 March 2021
Orbit: 815 x 1397 km, 63.4° (Epoch: 19 March)

Event Time Altitude Azimuth Distance (km) Brightness Sun altitude
Rises 20:51:54 0° 320° (NW) 3,936 8.1 -31.4°
Reaches altitude 10° 20:54:27 10° 322° (NW) 3,055 7.3 -31.8°
Enters shadow 21:01:50 78° 41° (NE) 1,295 4.4 -32.9°
